Location: Noyers
(47.2770°N, 1.4032°E)
Time: 02:33:30
(UTC+00:00)

RESURS DK-1 - Pass Details

Date: 15 May 2026
Orbit: 522 x 531 km, 69.9° (Epoch: 8 June)

Event Time Altitude Azimuth Distance (km) Brightness Sun altitude
Rises 22:13:54 0° 336° (NNW) 2,682 7.5 -20.2°
Reaches altitude 10° 22:16:13 10° 345° (NNW) 1,789 6.1 -20.4°
Maximum altitude 22:19:57 37° 54° (NE) 836 3.3 -20.6°
Enters shadow 22:20:47 33° 84° (E) 909 3.2 -20.7°
